This is the latest recevied weather packets stored in our database for station/object N5ATR. If no packets are shown the sender has not sent any weather packets the latest 10 day(s).
| Time | Temp. | Humidity | Pressure | Rain* | Wind** | Luminosity | Snow |
|---|---|---|---|---|---|---|---|
| 1777757749 | 15° C | 38% | 1021 hPa | 0 mm | - | 657 W/m² | - |
| 1777757447 | 15° C | 38% | 1021.3 hPa | 0 mm | - | 663 W/m² | - |
| 1777757146 | 13.89° C | 37% | 1021.3 hPa | 0 mm | - | 175 W/m² | - |
| 1777756843 | 14.44° C | 38% | 1021.7 hPa | 0 mm | - | 693 W/m² | - |
| 1777756538 | 14.44° C | 41% | 1021.4 hPa | 0 mm | - | 525 W/m² | - |
| 1777756236 | 15.56° C | 40% | 1021.5 hPa | 0 mm | - | 253 W/m² | - |
| 1777755933 | 15° C | 39% | 1021.4 hPa | 0 mm | - | 765 W/m² | - |
| 1777755630 | 15.56° C | 38% | 1021.8 hPa | 0 mm | - | 781 W/m² | - |
| 1777755327 | 15.56° C | 40% | 1021.7 hPa | 0 mm | - | 845 W/m² | - |
| 1777755024 | 13.89° C | 41% | 1021.7 hPa | 0 mm | - | 863 W/m² | - |
| 1777754721 | 13.89° C | 40% | 1021.7 hPa | 0 mm | - | 270 W/m² | - |
| 1777754418 | 13.33° C | 42% | 1021.8 hPa | 0 mm | - | 857 W/m² | - |
| 1777754115 | 12.78° C | 43% | 1021.9 hPa | 0 mm | - | 210 W/m² | - |
| 1777753812 | 13.33° C | 43% | 1022.2 hPa | 0 mm | - | 216 W/m² | - |
| 1777753508 | 13.33° C | 43% | 1021.9 hPa | 0 mm | - | 265 W/m² | - |
| 1777753206 | 14.44° C | 38% | 1022 hPa | 0 mm | - | 288 W/m² | - |
| 1777752902 | 13.33° C | 39% | 1021.8 hPa | 0 mm | - | 291 W/m² | - |
| 1777752599 | 13.33° C | 42% | 1021.8 hPa | 0 mm | - | 601 W/m² | - |
| 1777752295 | 13.33° C | 41% | 1022.2 hPa | 0 mm | - | 320 W/m² | - |
| 1777751993 | 13.89° C | 39% | 1022 hPa | 0 mm | - | 283 W/m² | - |
| 1777751690 | 13.89° C | 40% | 1022 hPa | 0 mm | - | 917 W/m² | - |
| 1777751386 | 13.33° C | 42% | 1022 hPa | 0 mm | - | 277 W/m² | - |
| 1777751083 | 14.44° C | 41% | 1021.8 hPa | 0 mm | - | 877 W/m² | - |
| 1777750779 | 13.89° C | 40% | 1022 hPa | 0 mm | - | 815 W/m² | - |
| 1777750476 | 14.44° C | 38% | 1022.3 hPa | 0 mm | - | 819 W/m² | - |
* Rain latest hour (hover to see other rain measurements)
** Current wind speed in m/s (hover to see current wind gust speed)